Location: *
(45.0500°N, 12.0500°E)
Time: 15:22:51
(UTC+00:00)

Cosmos 1833 Rocket - Pass Details

Date: 09 April 2020
Orbit: 834 x 838 km, 71.0° (Epoch: 29 May)

Event Time Altitude Azimuth Distance (km) Brightness Sun altitude
Exits shadow 20:39:34 45° 57° (ENE) 1,125 3.2 -26.7°
Drops below altitude 10° 20:43:39 10° 32° (NNE) 2,459 5.3 -27.2°
Sets 20:46:07 0° 29° (NNE) 3,397 6.1 -27.5°
